EHI
5 5 4 4 3 3 3 3 3 2 1 0 0 0 0 0 0 0 0 0 0 0 0 0 0 0 0 0 0 0 0 0 0 0 0 0 0 0
5 6 5 4 4 4 3 3 3 3 2 1 0 0 0 0 0 0 0 0 0 0 0 0 0 0 0 0 0 0 0 0 0 0 0 0 0 0
6 6 6 6 6 5 4 4 3 3 3 2 1 0 0 0 0 0 0 0 0 0 0 0 0 0 0 0 0 0 0 0 0 0 0 0 0 0
5 5 5 5 6 6 6 5 4 4 3 3 1 0 0 0 0 0 0 0 0 0 0 0 0 0 0 0 0 0 0 0 0 0 0 0 0 0
3 3 3 3 5 5 5 5 5 4 4 3 2 1 0 0 0 0 0 0 0 0 0 0 0 0 0 0 0 0 0 0 0 0 0 0 0 0
1 1 1 1 2 3 3 2 3 3 3 3 3 1 0 0 0 0 0 0 0 0 0 0 0 0 0 0 0 0 0 0 0 0 0 0 0 0
0 0 0 0 0 1 1 0 1 1 1 2 2 2 1 0 0 0 0 0 0 0 0 0 0 0 0 0 0 0 0 0 0 0 0 0 0 0
0 0 0 0 0 0 0 0 0 0 0 1 1 2 2 1 0 0 0 0 0 0 0 0 0 0 0 0 0 0 0 0 0 0 0 0 0 0
1 0 0 0 0 0 0 0 0 0 0 0 0 1 1 1 0 0 0 0 0 0 0 0 0 0 0 0 0 0 0 0 0 0 0 0 0 0
1 0 0 0 0 0 0 0 0 0 0 0 0 0 0 0 0 0 0 0 0 0 0 0 0 0 0 0 0 0 0 0 0 0 0 0 0 0
1 0 0 1 1 0 0 0 0 0 0 0 0 0 0 0 0 0 0 0 0 0 0 0 0 0 0 0 0 0 0 0 0 0 0 0 0 0
0 0 1 1 1 0 0 1 0 0 0 0 0 0 0 0 0 0 0 0 0 0 0 0 0 0 0 0 0 0 0 0 0 0 0 0 0 0
0 0 1 1 1 0 0 0 0 0 0 0 0 0 0 0 0 0 0 0 0 0 0 0 0 0 0 0 0 0 0 0 0 0 0 0 0 0
1 0 0 0 0 0 0 0 0 0 0 0 0 0 0 0 0 0 0 0 0 0 0 0 0 0 0 0 0 0 0 0 0 0 0 0 0 0
1 0 0 0 0 0 0 0 0 0 0 0 0 1 0 0 0 0 0 0 0 0 0 0 0 0 0 0 0 0 0 0 0 0 0 0 0 0
1 0 0 0 0 0 0 0 0 0 0 0 0 0 0 0 0 0 0 0 0 0 0 0 0 0 0 0 0 0 0 0 0 0 0 0 0 0
0 0 0 0 0 0 0 0 0 0 0 0 0 0 1 1 0 0 0 0 0 0 0 0 0 0 0 0 0 0 0 0 0 0 0 0 0 0
0 0 0 0 0 0 0 0 0 0 0 0 0 1 2 2 1 1 0 0 0 0 0 0 0 0 0 0 0 0 0 0 0 0 0 0 0 0
0 0 0 0 0 0 0 0 0 0 0 0 0 1 2 3 3 2 1 0 0 0 0 0 0 0 0 0 0 0 0 0 0 0 0 0 0 0
0 0 0 0 0 0 0 0 0 0 0 0 0 0 1 2 3 3 2 1 0 0 0 0 0 0 0 0 0 0 0 0 0 0 0 0 0 0
0 0 0 0 0 0 0 0 0 0 0 0 0 0 0 1 2 3 3 1 1 0 0 0 0 0 0 0 0 0 0 0 0 0 0 0 0 0
0 0 0 0 0 0 0 0 0 0 0 0 0 0 0 0 1 2 3 3 2 1 0 0 0 0 0 0 0 0 0 0 0 0 0 0 0 0
0 0 0 0 0 0 0 0 0 0 0 0 0 0 0 0 0 1 3 3 2 1 0 0 0 0 0 0 0 0 0 0 0 0 0 0 0 0
Wind_Speed
1 1 1 1 1 1 2 4 4 2 1 1 1 0 1 1 2 1 1 4 4 4 4 5 6 6 6 6 6 6 6 6 6 5 5 5 4 4
0 1 0 1 1 1 2 2 2 3 2 1 1 1 1 2 3 1 1 4 4 4 4 5 6 6 6 6 6 6 6 5 5 5 5 5 5 5
0 1 1 1 1 1 1 2 2 2 3 1 0 1 1 2 1 1 1 1 1 4 5 5 6 6 6 6 6 6 5 5 5 5 5 5 6 6
1 1 0 1 1 1 2 2 2 2 4 3 1 1 1 2 2 1 1 1 1 3 5 5 5 5 5 5 5 5 5 5 5 5 5 5 5 6
1 1 0 1 1 1 2 2 2 2 2 4 2 1 1 1 1 1 1 0 1 2 4 4 5 5 5 5 5 4 4 4 4 4 4 5 5 5
1 1 1 2 2 2 2 2 3 3 3 4 3 2 1 1 2 1 0 0 1 1 1 2 3 4 4 5 5 4 4 4 4 4 4 4 4 4
0 0 1 2 2 2 2 3 3 3 3 3 3 2 2 2 2 2 2 1 1 1 1 1 1 1 1 3 4 5 5 5 4 4 4 3 3 2
1 0 1 1 1 2 4 5 5 5 4 3 2 3 3 3 2 2 2 1 2 2 2 1 1 2 2 2 4 6 6 6 6 5 5 4 3 2
2 1 1 1 1 1 2 3 3 5 6 5 4 4 4 4 4 3 3 3 3 3 3 2 1 2 2 3 6 7 7 7 7 6 6 5 4 3
2 2 2 0 0 2 2 2 1 1 2 3 4 4 4 4 5 5 4 3 0 1 3 2 2 2 3 2 5 8 8 8 7 7 7 6 6 5
1 2 2 2 1 4 3 2 1 1 1 2 4 4 5 6 5 3 2 2 1 2 2 2 2 1 1 2 4 7 8 8 8 8 7 7 7 5
0 0 2 3 3 4 3 3 2 2 1 0 0 1 2 3 5 5 5 4 2 2 2 3 2 2 1 2 2 2 4 6 8 8 8 8 7 4
2 1 2 3 3 4 3 3 4 3 1 1 0 1 1 1 2 3 4 4 4 3 3 4 2 2 2 1 2 2 3 3 3 4 7 8 8 7
3 2 2 4 4 3 2 3 3 2 1 1 0 1 2 2 3 3 4 4 4 4 4 5 3 4 3 2 2 2 2 3 3 4 4 5 7 9
3 4 4 4 3 2 3 3 2 2 1 1 2 3 3 3 2 1 1 1 1 2 2 4 4 3 3 3 2 2 2 2 3 4 4 4 4 4
1 2 3 3 2 2 2 2 2 3 3 3 3 2 1 1 1 1 1 1 1 2 2 2 4 5 3 3 3 3 3 3 3 4 4 4 4 4
2 1 0 0 1 1 1 2 2 2 2 2 2 2 2 2 2 1 1 1 2 2 2 2 1 2 4 4 3 3 3 3 3 4 4 4 4 5
4 2 2 2 3 3 3 3 2 3 3 3 3 3 3 3 3 2 1 2 3 3 3 2 1 1 1 2 5 4 3 4 3 3 4 4 4 4
3 3 3 4 4 3 3 4 4 4 3 3 3 3 3 3 3 2 2 2 3 3 3 3 2 3 3 4 5 5 5 3 2 3 4 4 5 5
3 3 4 3 3 3 3 3 3 3 3 3 3 3 3 3 3 3 3 4 4 3 3 2 3 5 6 6 4 4 6 5 4 4 3 3 3 3
4 4 4 3 3 3 3 3 3 3 3 3 3 4 4 3 3 4 4 5 4 3 4 5 6 7 3 1 1 3 4 6 6 5 4 3 2 2
4 4 4 4 4 4 4 3 3 3 3 3 3 3 4 4 4 4 4 3 4 4 5 4 3 2 2 3 4 4 4 3 3 5 7 7 5 5
5 4 4 4 4 4 4 4 4 4 4 4 4 4 4 4 4 4 4 4 4 4 3 3 2 2 3 4 4 4 4 3 2 1 3 5 8 9
Wind_Direction
207 193 190 200 175 172 162 161 159 172 209 192 178 157 135 114 112 111 114 120 120 116 117 119 117 109 104 100 97 94 92 88 83 79 81 87 89 91
184 144 187 204 180 165 166 164 158 159 174 192 190 182 156 126 120 108 120 121 121 122 125 127 125 118 113 109 104 103 100 98 98 94 88 85 83 84
93 127 165 166 161 163 151 149 148 139 147 170 109 137 118 128 110 80 93 89 110 123 132 132 129 125 120 115 111 108 103 102 102 98 95 92 91 90
123 105 251 128 136 163 156 160 163 154 148 159 153 150 153 161 153 145 144 137 126 135 139 138 138 136 130 123 117 111 103 100 99 98 98 99 98 96
143 134 162 126 138 155 151 155 158 141 135 149 161 161 132 153 136 159 137 91 159 152 154 155 154 150 148 141 135 127 123 119 111 104 99 96 94 91
160 146 134 149 171 164 140 141 134 126 130 143 148 152 152 162 138 147 163 240 210 177 157 163 174 171 169 162 160 157 153 145 136 127 118 108 99 92
147 132 136 144 167 172 156 152 142 140 142 146 157 156 164 163 186 189 189 193 256 201 159 213 186 197 204 196 186 182 176 170 162 155 150 142 132 121
151 152 106 70 111 169 159 152 154 158 163 164 181 186 200 195 181 176 165 151 240 228 168 226 185 224 236 225 218 206 198 194 191 187 184 184 183 178
153 155 139 53 70 122 142 141 163 170 168 170 180 200 199 197 177 183 189 188 212 205 157 221 212 228 237 228 218 215 213 211 208 203 198 198 199 199
156 163 156 173 129 135 129 113 129 215 201 188 195 209 205 196 187 189 196 193 218 202 155 190 217 224 231 225 222 214 216 217 217 212 208 208 208 212
153 155 159 166 178 148 130 126 96 327 295 196 198 203 199 190 176 147 144 146 204 234 182 173 199 218 246 243 232 217 216 218 218 218 218 218 218 217
178 184 178 171 166 156 150 150 172 244 261 32 261 225 204 204 188 178 174 173 179 228 206 167 175 149 237 270 238 223 221 227 227 228 227 225 219 208
191 219 235 188 174 174 171 182 206 205 193 185 216 275 287 244 226 206 190 177 179 217 201 162 166 163 174 238 261 228 211 216 216 228 231 229 220 203
196 212 221 205 200 196 199 210 197 152 129 128 175 249 241 245 239 222 211 207 201 204 192 167 168 174 166 185 247 251 231 220 207 218 223 229 227 221
201 198 206 211 216 228 225 213 182 156 159 190 226 239 236 232 222 210 210 213 239 239 189 183 173 171 171 187 204 211 227 240 215 213 218 216 215 205
215 226 220 221 231 251 246 225 202 193 193 213 228 244 256 228 209 196 198 194 197 289 278 210 186 174 189 201 188 209 207 214 218 217 215 224 224 213
164 122 98 140 249 261 258 258 237 211 212 220 221 225 224 220 229 211 188 174 190 229 265 282 240 202 198 185 199 223 220 229 223 203 199 224 238 227
153 171 204 216 224 230 232 240 234 224 222 213 213 215 214 215 223 220 196 192 211 225 230 230 174 65 4 286 217 209 219 226 228 205 192 205 238 238
171 203 212 219 225 228 229 227 230 228 213 206 213 216 214 214 210 214 212 216 226 230 231 215 186 175 201 249 270 220 203 217 208 211 206 201 219 230
208 214 220 222 222 224 229 231 234 229 217 218 219 217 212 211 214 215 213 214 221 226 234 229 210 203 209 220 233 253 220 202 200 213 219 218 237 253
220 223 222 222 225 224 223 220 221 221 223 221 222 216 210 208 219 221 220 225 219 218 225 233 235 227 212 161 224 270 261 229 208 203 197 194 215 222
223 224 227 229 230 225 219 214 217 224 228 225 227 224 216 210 214 220 220 220 223 225 233 244 245 198 180 204 230 244 260 276 258 235 211 194 185 200
225 226 229 231 231 226 218 218 218 223 221 223 226 225 221 219 218 216 219 221 224 232 238 244 241 219 218 217 225 235 243 249 254 275 277 263 237 232